Year,Month,Day,Hour,Minute,Value (Times are PST for temperature in C)
2016,04,20,00,00,13.30
2016,04,20,00,01,13.30
2016,04,20,00,02,13.30
2016,04,20,00,03,13.30
2016,04,20,00,04,13.30
2016,04,20,00,05,13.30
2016,04,20,00,06,13.40
2016,04,20,00,07,13.40
2016,04,20,00,08,13.40
2016,04,20,00,09,13.40
2016,04,20,00,10,13.50
2016,04,20,00,11,13.50
2016,04,20,00,12,13.60
2016,04,20,00,17,13.60
2016,04,20,00,18,13.60
2016,04,20,00,19,13.60
2016,04,20,00,20,13.60
2016,04,20,00,21,13.50
2016,04,20,00,22,13.50
2016,04,20,00,23,13.50
2016,04,20,00,24,13.40
2016,04,20,00,25,13.40
2016,04,20,00,26,13.30
2016,04,20,00,27,13.30
2016,04,20,00,28,13.20
2016,04,20,00,29,13.20
2016,04,20,00,30,13.20
2016,04,20,00,31,13.20
2016,04,20,00,32,13.20
2016,04,20,00,33,13.10
2016,04,20,00,34,13.10
2016,04,20,00,35,13.10
2016,04,20,00,36,13.00
2016,04,20,00,37,13.00
2016,04,20,00,38,13.00
2016,04,20,00,39,13.00
2016,04,20,00,40,13.00
2016,04,20,00,41,13.10
2016,04,20,00,42,13.00
2016,04,20,00,43,13.00
2016,04,20,00,44,13.00
2016,04,20,00,45,13.00
2016,04,20,00,46,13.00
2016,04,20,00,47,13.00
2016,04,20,00,48,12.90
2016,04,20,00,49,12.90
2016,04,20,00,50,12.80
2016,04,20,00,51,12.80
2016,04,20,00,52,12.80
2016,04,20,00,53,12.80
2016,04,20,00,54,12.80
2016,04,20,00,55,12.90
2016,04,20,00,56,12.90
2016,04,20,00,57,12.90
2016,04,20,00,58,12.90
2016,04,20,00,59,12.90
2016,04,20,01,00,12.90
2016,04,20,01,01,12.90
2016,04,20,01,02,12.90
2016,04,20,01,03,13.00
2016,04,20,01,04,13.00
2016,04,20,01,05,12.90
2016,04,20,01,06,12.90
2016,04,20,01,07,12.90
2016,04,20,01,08,12.80
2016,04,20,01,09,12.80
2016,04,20,01,10,12.70
2016,04,20,01,11,12.70
2016,04,20,01,12,12.70
2016,04,20,01,13,12.60
2016,04,20,01,14,12.60
2016,04,20,01,15,12.60
2016,04,20,01,16,12.60
2016,04,20,01,17,12.50
2016,04,20,01,18,12.50
2016,04,20,01,19,12.50
2016,04,20,01,20,12.40
2016,04,20,01,21,12.40
2016,04,20,01,22,12.40
2016,04,20,01,23,12.40
2016,04,20,01,24,12.40
2016,04,20,01,25,12.40
2016,04,20,01,26,12.40
2016,04,20,01,27,12.40
2016,04,20,01,28,12.30
2016,04,20,01,29,12.30
2016,04,20,01,30,12.30
2016,04,20,01,31,12.30
2016,04,20,01,32,12.20
2016,04,20,01,33,12.20
2016,04,20,01,34,12.20
2016,04,20,01,35,12.20
2016,04,20,01,36,12.20
2016,04,20,01,37,12.10
2016,04,20,01,38,12.10
2016,04,20,01,39,12.10
2016,04,20,01,40,12.10
2016,04,20,01,41,12.10
2016,04,20,01,42,12.10
2016,04,20,01,43,12.20
2016,04,20,01,44,12.20
2016,04,20,01,45,12.20
2016,04,20,01,46,12.30
2016,04,20,01,47,12.30
2016,04,20,01,48,12.30
2016,04,20,01,49,12.30
2016,04,20,01,50,12.30
2016,04,20,01,51,12.30
2016,04,20,01,52,12.30
2016,04,20,01,53,12.30
2016,04,20,01,54,12.30
2016,04,20,01,55,12.30
2016,04,20,01,56,12.30
2016,04,20,01,57,12.30
2016,04,20,01,58,12.30
2016,04,20,01,59,12.40
2016,04,20,02,00,12.40
2016,04,20,02,01,12.40
2016,04,20,02,02,12.40
2016,04,20,02,03,12.30
2016,04,20,02,04,12.30
2016,04,20,02,05,12.30
2016,04,20,02,06,12.30
2016,04,20,02,07,12.30
2016,04,20,02,08,12.30
2016,04,20,02,09,12.30
2016,04,20,02,10,12.30
2016,04,20,02,11,12.20
2016,04,20,02,12,12.20
2016,04,20,02,13,12.20
2016,04,20,02,14,12.20
2016,04,20,02,15,12.10
2016,04,20,02,16,12.10
2016,04,20,02,17,12.10
2016,04,20,02,18,12.20
2016,04,20,02,19,12.20
2016,04,20,02,20,12.20
2016,04,20,02,21,12.20
2016,04,20,02,22,12.20
2016,04,20,02,23,12.20
2016,04,20,02,24,12.20
2016,04,20,02,25,12.20
2016,04,20,02,26,12.20
2016,04,20,02,27,12.20
2016,04,20,02,28,12.20
2016,04,20,02,29,12.30
2016,04,20,02,30,12.30
2016,04,20,02,31,12.30
2016,04,20,02,32,12.40
2016,04,20,02,33,12.40
2016,04,20,02,34,12.40
2016,04,20,02,35,12.30
2016,04,20,02,36,12.30
2016,04,20,02,37,12.30
2016,04,20,02,38,12.20
2016,04,20,02,39,12.20
2016,04,20,02,40,12.20
2016,04,20,02,41,12.10
2016,04,20,02,42,12.10
2016,04,20,02,43,12.10
2016,04,20,02,44,12.10
2016,04,20,02,45,12.00
2016,04,20,02,46,12.00
2016,04,20,02,47,12.00
2016,04,20,02,48,12.00
2016,04,20,02,49,12.10
2016,04,20,02,50,12.10
2016,04,20,02,51,12.10
2016,04,20,02,52,12.00
2016,04,20,02,53,12.00
2016,04,20,02,54,11.90
2016,04,20,02,55,11.90
2016,04,20,02,56,11.90
2016,04,20,02,57,11.80
2016,04,20,02,58,11.80
2016,04,20,02,59,11.80
2016,04,20,03,00,11.80
2016,04,20,03,01,11.80
2016,04,20,03,02,11.80
2016,04,20,03,03,11.80
2016,04,20,03,04,11.80
2016,04,20,03,05,11.80
2016,04,20,03,06,11.80
2016,04,20,03,07,11.80
2016,04,20,03,08,11.80
2016,04,20,03,09,11.80
2016,04,20,03,10,11.80
2016,04,20,03,11,11.70
2016,04,20,03,12,11.70
2016,04,20,03,13,11.70
2016,04,20,03,14,11.70
2016,04,20,03,15,11.70
2016,04,20,03,16,11.70
2016,04,20,03,17,11.70
2016,04,20,03,18,11.70
2016,04,20,03,19,11.70
2016,04,20,03,20,11.70
2016,04,20,03,21,11.70
2016,04,20,03,22,11.60
2016,04,20,03,23,11.60
2016,04,20,03,24,11.60
2016,04,20,03,25,11.50
2016,04,20,03,26,11.50
2016,04,20,03,27,11.40
2016,04,20,03,28,11.50
2016,04,20,03,29,11.40
2016,04,20,03,30,11.40
2016,04,20,03,31,11.40
2016,04,20,03,32,11.40
2016,04,20,03,33,11.40
2016,04,20,03,34,11.40
2016,04,20,03,35,11.40
2016,04,20,03,36,11.30
2016,04,20,03,37,11.30
2016,04,20,03,38,11.30
2016,04,20,03,39,11.30
2016,04,20,03,40,11.30
2016,04,20,03,41,11.30
2016,04,20,03,42,11.30
2016,04,20,03,43,11.30
2016,04,20,03,44,11.30
2016,04,20,03,45,11.30
2016,04,20,03,46,11.30
2016,04,20,03,47,11.30
2016,04,20,03,48,11.30
2016,04,20,03,49,11.30
2016,04,20,03,50,11.20
2016,04,20,03,51,11.20
2016,04,20,03,52,11.10
2016,04,20,03,53,11.10
2016,04,20,03,54,11.10
2016,04,20,03,55,11.10
2016,04,20,03,56,11.10
2016,04,20,03,57,11.00
2016,04,20,03,58,11.00
2016,04,20,03,59,11.00
2016,04,20,04,00,11.10
2016,04,20,04,01,11.10
2016,04,20,04,02,11.10
2016,04,20,04,03,11.10
2016,04,20,04,04,11.10
2016,04,20,04,05,11.10
2016,04,20,04,06,11.10
2016,04,20,04,07,11.00
2016,04,20,04,08,11.00
2016,04,20,04,09,11.00
2016,04,20,04,10,11.00
2016,04,20,04,11,11.00
2016,04,20,04,12,11.00
2016,04,20,04,13,11.00
2016,04,20,04,14,10.90
2016,04,20,04,15,10.90
2016,04,20,04,16,10.90
2016,04,20,04,17,10.90
2016,04,20,04,18,10.90
2016,04,20,04,19,10.90
2016,04,20,04,20,10.90
2016,04,20,04,21,10.90
2016,04,20,04,22,11.00
2016,04,20,04,23,11.00
2016,04,20,04,24,11.00
2016,04,20,04,25,11.10
2016,04,20,04,26,11.10
2016,04,20,04,27,11.10
2016,04,20,04,28,11.20
2016,04,20,04,29,11.20
2016,04,20,04,30,11.20
2016,04,20,04,31,11.20
2016,04,20,04,32,11.20
2016,04,20,04,33,11.20
2016,04,20,04,34,11.20
2016,04,20,04,35,11.20
2016,04,20,04,36,11.20
2016,04,20,04,37,11.20
2016,04,20,04,38,11.20
2016,04,20,04,39,11.20
2016,04,20,04,40,11.10
2016,04,20,04,41,11.10
2016,04,20,04,42,11.10
2016,04,20,04,43,11.10
2016,04,20,04,44,11.10
2016,04,20,04,45,11.00
2016,04,20,04,46,11.00
2016,04,20,04,47,10.90
2016,04,20,04,48,11.00
2016,04,20,04,49,11.00
2016,04,20,04,50,11.00
2016,04,20,04,51,10.90
2016,04,20,04,52,10.80
2016,04,20,04,53,10.80
2016,04,20,04,54,10.70
2016,04,20,04,55,10.70
2016,04,20,04,56,10.70
2016,04,20,04,57,10.70
2016,04,20,04,58,10.70
2016,04,20,04,59,10.70
2016,04,20,05,00,10.70
2016,04,20,05,01,10.70
2016,04,20,05,02,10.70
2016,04,20,05,03,10.60
2016,04,20,05,04,10.60
2016,04,20,05,05,10.60
2016,04,20,05,06,10.60
2016,04,20,05,07,10.70
2016,04,20,05,08,10.70
2016,04,20,05,09,10.70
2016,04,20,05,10,10.70
2016,04,20,05,11,10.80
2016,04,20,05,12,10.80
2016,04,20,05,13,10.80
2016,04,20,05,14,10.90
2016,04,20,05,15,10.90
2016,04,20,05,16,10.90
2016,04,20,05,17,10.90
2016,04,20,05,18,10.90
2016,04,20,05,19,10.90
2016,04,20,05,20,10.90
2016,04,20,05,21,10.90
2016,04,20,05,22,10.80
2016,04,20,05,23,10.80
2016,04,20,05,24,10.80
2016,04,20,05,25,10.90
2016,04,20,05,26,10.90
2016,04,20,05,27,10.90
2016,04,20,05,28,10.90
2016,04,20,05,29,10.80
2016,04,20,05,30,10.70
2016,04,20,05,31,10.60
2016,04,20,05,32,10.50
2016,04,20,05,33,10.50
2016,04,20,05,34,10.50
2016,04,20,05,35,10.50
2016,04,20,05,36,10.50
2016,04,20,05,37,10.60
2016,04,20,05,38,10.60
2016,04,20,05,39,10.60
2016,04,20,05,40,10.50
2016,04,20,05,41,10.50
2016,04,20,05,42,10.40
2016,04,20,05,43,10.40
2016,04,20,05,44,10.40
2016,04,20,05,45,10.40
2016,04,20,05,46,10.50
2016,04,20,05,47,10.60
2016,04,20,05,48,10.70
2016,04,20,05,49,10.80
2016,04,20,05,50,10.90
2016,04,20,05,51,10.90
2016,04,20,05,52,11.00
2016,04,20,05,53,11.10
2016,04,20,05,54,11.10
2016,04,20,05,55,11.10
2016,04,20,05,56,11.20
2016,04,20,05,57,11.20
2016,04,20,05,58,11.20
2016,04,20,05,59,11.20
2016,04,20,06,00,11.10
2016,04,20,06,01,11.10
2016,04,20,06,02,11.00
2016,04,20,06,03,10.90
2016,04,20,06,04,10.80
2016,04,20,06,05,10.70
2016,04,20,06,06,10.60
2016,04,20,06,07,10.50
2016,04,20,06,08,10.40
2016,04,20,06,09,10.40
2016,04,20,06,10,10.40
2016,04,20,06,11,10.50
2016,04,20,06,12,10.50
2016,04,20,06,13,10.60
2016,04,20,06,14,10.70
2016,04,20,06,15,10.80
2016,04,20,06,16,10.80
2016,04,20,06,17,10.80
2016,04,20,06,18,10.80
2016,04,20,06,19,10.80
2016,04,20,06,20,10.80
2016,04,20,06,21,10.80
2016,04,20,06,22,10.80
2016,04,20,06,23,10.80
2016,04,20,06,24,10.80
2016,04,20,06,25,10.70
2016,04,20,06,26,10.70
2016,04,20,06,27,10.60
2016,04,20,06,28,10.60
2016,04,20,06,29,10.50
2016,04,20,06,30,10.40
2016,04,20,06,31,10.30
2016,04,20,06,32,10.20
2016,04,20,06,33,10.20
2016,04,20,06,34,10.10
2016,04,20,06,35,10.10
2016,04,20,06,36,10.00
2016,04,20,06,37,10.00
2016,04,20,06,38,9.90
2016,04,20,06,39,9.90
2016,04,20,06,40,9.80
2016,04,20,06,41,9.80
2016,04,20,06,42,9.80
2016,04,20,06,43,9.80
2016,04,20,06,44,9.80
2016,04,20,06,45,9.80
2016,04,20,06,46,9.80
2016,04,20,06,47,9.80
2016,04,20,06,48,9.80
2016,04,20,06,49,9.80
2016,04,20,06,50,9.80
2016,04,20,06,51,9.90
2016,04,20,06,52,9.90
2016,04,20,06,53,10.00
2016,04,20,06,54,9.90
2016,04,20,06,55,9.90
2016,04,20,06,56,9.90
2016,04,20,06,57,9.90
2016,04,20,06,58,9.90
2016,04,20,06,59,9.90
2016,04,20,07,00,9.90
2016,04,20,07,01,9.90
2016,04,20,07,02,10.00
2016,04,20,07,03,10.00
2016,04,20,07,04,10.10
2016,04,20,07,05,10.10
2016,04,20,07,06,10.20
2016,04,20,07,07,10.20
2016,04,20,07,08,10.20
2016,04,20,07,09,10.20
2016,04,20,07,10,10.20
2016,04,20,07,11,10.30
2016,04,20,07,12,10.30
2016,04,20,07,13,10.40
2016,04,20,07,14,10.40
2016,04,20,07,15,10.40
2016,04,20,07,16,10.50
2016,04,20,07,17,10.50
2016,04,20,07,18,10.60
2016,04,20,07,19,10.60
2016,04,20,07,20,10.60
2016,04,20,07,21,10.70
2016,04,20,07,22,10.70
2016,04,20,07,23,10.70
2016,04,20,07,24,10.80
2016,04,20,07,25,10.80
2016,04,20,07,26,10.80
2016,04,20,07,27,10.80
2016,04,20,07,28,10.80
2016,04,20,07,29,10.90
2016,04,20,07,30,10.90
2016,04,20,07,31,10.90
2016,04,20,07,32,11.00
2016,04,20,07,33,11.00
2016,04,20,07,34,11.00
2016,04,20,07,35,11.10
2016,04,20,07,36,11.10
2016,04,20,07,37,11.10
2016,04,20,07,38,11.20
2016,04,20,07,39,11.20
2016,04,20,07,40,11.20
2016,04,20,07,41,11.20
2016,04,20,07,42,11.20
2016,04,20,07,43,11.20
2016,04,20,07,44,11.20
2016,04,20,07,45,11.20
2016,04,20,07,46,11.20
2016,04,20,07,47,11.20
2016,04,20,07,48,11.20
2016,04,20,07,49,11.30
2016,04,20,07,50,11.30
2016,04,20,07,51,11.30
2016,04,20,07,52,11.40
2016,04,20,07,53,11.40
2016,04,20,07,54,11.50
2016,04,20,07,55,11.60
2016,04,20,07,56,11.60
2016,04,20,07,57,11.70
2016,04,20,07,58,11.70
2016,04,20,07,59,11.80
2016,04,20,08,00,11.90
2016,04,20,08,01,12.00
2016,04,20,08,02,12.00
2016,04,20,08,03,12.10
2016,04,20,08,04,12.20
2016,04,20,08,05,12.30
2016,04,20,08,06,12.40
2016,04,20,08,07,12.50
2016,04,20,08,08,12.60
2016,04,20,08,09,12.70
2016,04,20,08,10,12.80
2016,04,20,08,11,13.00
2016,04,20,08,12,13.10
2016,04,20,08,13,13.20
2016,04,20,08,14,13.40
2016,04,20,08,15,13.50
2016,04,20,08,16,13.60
2016,04,20,08,17,13.70
2016,04,20,08,18,13.80
2016,04,20,08,19,13.90
2016,04,20,08,20,14.00
2016,04,20,08,21,14.10
2016,04,20,08,22,14.10
2016,04,20,08,23,14.10
2016,04,20,08,24,14.20
2016,04,20,08,25,14.20
2016,04,20,08,26,14.20
2016,04,20,08,27,14.30
2016,04,20,08,28,14.30
2016,04,20,08,29,14.40
2016,04,20,08,30,14.50
2016,04,20,08,31,14.50
2016,04,20,08,32,14.60
2016,04,20,08,33,14.60
2016,04,20,08,34,14.70
2016,04,20,08,35,14.70
2016,04,20,08,36,14.70
2016,04,20,08,37,14.80
2016,04,20,08,38,14.90
2016,04,20,08,39,14.90
2016,04,20,08,40,15.00
2016,04,20,08,41,15.10
2016,04,20,08,42,15.10
2016,04,20,08,43,15.20
2016,04,20,08,44,15.20
2016,04,20,08,45,15.30
2016,04,20,08,46,15.30
2016,04,20,08,47,15.40
2016,04,20,08,48,15.40
2016,04,20,08,49,15.40
2016,04,20,08,50,15.50
2016,04,20,08,51,15.60
2016,04,20,08,52,15.70
2016,04,20,08,53,15.70
2016,04,20,08,54,15.80
2016,04,20,08,55,15.90
2016,04,20,08,56,15.90
2016,04,20,08,57,16.00
2016,04,20,08,58,16.00
2016,04,20,08,59,16.10
2016,04,20,09,00,16.10
2016,04,20,09,01,16.20
2016,04,20,09,02,16.30
2016,04,20,09,03,16.30
2016,04,20,09,04,16.40
2016,04,20,09,05,16.50
2016,04,20,09,06,16.70
2016,04,20,09,07,16.80
2016,04,20,09,08,16.80
2016,04,20,09,09,16.90
2016,04,20,09,10,16.90
2016,04,20,09,11,17.00
2016,04,20,09,12,17.10
2016,04,20,09,13,17.20
2016,04,20,09,14,17.30
2016,04,20,09,15,17.30
2016,04,20,09,16,17.30
2016,04,20,09,17,17.40
2016,04,20,09,18,17.40
2016,04,20,09,19,17.40
2016,04,20,09,20,17.40
2016,04,20,09,21,17.40
2016,04,20,09,22,17.40
2016,04,20,09,23,17.50
2016,04,20,09,24,17.50
2016,04,20,09,25,17.60
2016,04,20,09,26,17.60
2016,04,20,09,27,17.70
2016,04,20,09,28,17.80
2016,04,20,09,29,17.90
2016,04,20,09,30,18.00
2016,04,20,09,31,18.00
2016,04,20,09,32,18.10
2016,04,20,09,33,18.10
2016,04,20,09,34,18.20
2016,04,20,09,35,18.30
2016,04,20,09,36,18.40
2016,04,20,09,37,18.50
2016,04,20,09,38,18.60
2016,04,20,09,39,18.60
2016,04,20,09,40,18.60
2016,04,20,09,41,18.70
2016,04,20,09,42,18.70
2016,04,20,09,43,18.80
2016,04,20,09,44,18.80
2016,04,20,09,45,18.90
2016,04,20,09,46,19.00
2016,04,20,09,47,19.10
2016,04,20,09,48,19.30
2016,04,20,09,49,19.40
2016,04,20,09,50,19.40
2016,04,20,09,51,19.50
2016,04,20,09,52,19.50
2016,04,20,09,53,19.60
2016,04,20,09,54,19.70
2016,04,20,09,55,19.70
2016,04,20,09,56,19.70
2016,04,20,09,57,19.80
2016,04,20,09,58,19.80
2016,04,20,09,59,19.80
2016,04,20,10,00,19.80
2016,04,20,10,01,19.90
2016,04,20,10,02,19.90
2016,04,20,10,03,19.90
2016,04,20,10,04,19.90
2016,04,20,10,05,19.90
2016,04,20,10,06,20.00
2016,04,20,10,07,20.00
2016,04,20,10,08,20.10
2016,04,20,10,09,20.10
2016,04,20,10,10,20.20
2016,04,20,10,11,20.20
2016,04,20,10,12,20.10
2016,04,20,10,13,19.90
2016,04,20,10,14,19.80
2016,04,20,10,15,19.60
2016,04,20,10,16,19.50
2016,04,20,10,17,19.30
2016,04,20,10,18,19.20
2016,04,20,10,19,19.10
2016,04,20,10,20,19.00
2016,04,20,10,21,19.00
2016,04,20,10,22,18.90
2016,04,20,10,23,18.90
2016,04,20,10,24,18.80
2016,04,20,10,25,18.70
2016,04,20,10,26,18.70
2016,04,20,10,27,18.70
2016,04,20,10,28,18.70
2016,04,20,10,29,18.70
2016,04,20,10,30,18.70
2016,04,20,10,31,18.80
2016,04,20,10,32,18.90
2016,04,20,10,33,19.10
2016,04,20,10,34,19.20
2016,04,20,10,35,19.30
2016,04,20,10,36,19.40
2016,04,20,10,37,19.50
2016,04,20,10,38,19.70
2016,04,20,10,39,19.70
2016,04,20,10,40,19.80
2016,04,20,10,41,19.90
2016,04,20,10,42,20.00
2016,04,20,10,43,20.10
2016,04,20,10,44,20.20
2016,04,20,10,45,20.20
2016,04,20,10,46,20.20
2016,04,20,10,47,20.20
2016,04,20,10,48,20.20
2016,04,20,10,49,20.30
2016,04,20,10,50,20.30
2016,04,20,10,51,20.30
2016,04,20,10,52,20.30
2016,04,20,10,53,20.20
2016,04,20,10,54,20.20
2016,04,20,10,55,20.20
2016,04,20,10,56,20.20
2016,04,20,10,57,20.30
2016,04,20,10,58,20.30
2016,04,20,10,59,20.30
2016,04,20,11,00,20.20
2016,04,20,11,01,20.20
2016,04,20,11,02,20.10
2016,04,20,11,03,20.00
2016,04,20,11,04,19.90
2016,04,20,11,05,19.70
2016,04,20,11,06,19.40
2016,04,20,11,07,19.20
2016,04,20,11,08,18.90
2016,04,20,11,09,18.60
2016,04,20,11,10,18.30
2016,04,20,11,11,18.10
2016,04,20,11,12,18.00
2016,04,20,11,13,17.80
2016,04,20,11,14,17.60
2016,04,20,11,15,17.50
2016,04,20,11,16,17.40
2016,04,20,11,17,17.30
2016,04,20,11,18,17.20
2016,04,20,11,19,17.10
2016,04,20,11,20,17.00
2016,04,20,11,21,16.90
2016,04,20,11,22,16.90
2016,04,20,11,23,16.80
2016,04,20,11,24,16.70
2016,04,20,11,25,16.60
2016,04,20,11,26,16.50
2016,04,20,11,27,16.40
2016,04,20,11,28,16.30
2016,04,20,11,29,16.20
2016,04,20,11,30,16.20
2016,04,20,11,31,16.20
2016,04,20,11,32,16.20
2016,04,20,11,33,16.20
2016,04,20,11,34,16.30
2016,04,20,11,35,16.30
2016,04,20,11,36,16.30
2016,04,20,11,37,16.30
2016,04,20,11,38,16.30
2016,04,20,11,39,16.30
2016,04,20,11,40,16.30
2016,04,20,11,41,16.30
2016,04,20,11,42,16.30
2016,04,20,11,43,16.30
2016,04,20,11,44,16.30
2016,04,20,11,45,16.30
2016,04,20,11,46,16.20
2016,04,20,11,47,16.30
2016,04,20,11,48,16.30
2016,04,20,11,49,16.40
2016,04,20,11,50,16.40
2016,04,20,11,51,16.50
2016,04,20,11,52,16.60
2016,04,20,11,53,16.70
2016,04,20,11,54,16.80
2016,04,20,11,55,16.80
2016,04,20,11,56,16.80
2016,04,20,11,57,16.90
2016,04,20,11,58,16.80
2016,04,20,11,59,16.80
2016,04,20,12,00,16.70
2016,04,20,12,01,16.70
2016,04,20,12,02,16.60
2016,04,20,12,03,16.60
2016,04,20,12,04,16.50
2016,04,20,12,05,16.40
2016,04,20,12,06,16.40
2016,04,20,12,07,16.30
2016,04,20,12,08,16.30
2016,04,20,12,09,16.20
2016,04,20,12,10,16.20
2016,04,20,12,11,16.10
2016,04,20,12,12,16.20
2016,04,20,12,13,16.20
2016,04,20,12,14,16.20
2016,04,20,12,15,16.30
2016,04,20,12,16,16.40
2016,04,20,12,17,16.50
2016,04,20,12,18,16.60
2016,04,20,12,19,16.70
2016,04,20,12,20,16.90
2016,04,20,12,21,17.00
2016,04,20,12,22,17.10
2016,04,20,12,23,17.20
2016,04,20,12,24,17.30
2016,04,20,12,25,17.30
2016,04,20,12,26,17.40
2016,04,20,12,27,17.50
2016,04,20,12,28,17.60
2016,04,20,12,29,17.70
2016,04,20,12,30,17.60
2016,04,20,12,31,17.60
2016,04,20,12,32,17.60
2016,04,20,12,33,17.60
2016,04,20,12,34,17.70
2016,04,20,12,35,17.80
2016,04,20,12,36,17.90
2016,04,20,12,37,18.00
2016,04,20,12,38,18.10
2016,04,20,12,39,18.20
2016,04,20,12,40,18.30
2016,04,20,12,41,18.40
2016,04,20,12,42,18.60
2016,04,20,12,43,18.60
2016,04,20,12,44,18.70
2016,04,20,12,45,18.80
2016,04,20,12,46,18.80
2016,04,20,12,47,18.80
2016,04,20,12,48,18.80
2016,04,20,12,49,18.70
2016,04,20,12,50,18.70
2016,04,20,12,51,18.60
2016,04,20,12,52,18.50
2016,04,20,12,53,18.30
2016,04,20,12,54,18.20
2016,04,20,12,55,18.10
2016,04,20,12,56,18.00
2016,04,20,12,57,17.80
2016,04,20,12,58,17.80
2016,04,20,12,59,17.80
2016,04,20,13,00,17.90
2016,04,20,13,01,18.00
2016,04,20,13,02,18.00
2016,04,20,13,03,18.10
2016,04,20,13,04,18.20
2016,04,20,13,05,18.30
2016,04,20,13,06,18.40
2016,04,20,13,07,18.50
2016,04,20,13,08,18.60
2016,04,20,13,09,18.60
2016,04,20,13,10,18.70
2016,04,20,13,11,18.80
2016,04,20,13,12,18.90
2016,04,20,13,13,19.00
2016,04,20,13,14,19.10
2016,04,20,13,15,19.20
2016,04,20,13,16,19.40
2016,04,20,13,17,19.40
2016,04,20,13,18,19.50
2016,04,20,13,19,19.60
2016,04,20,13,20,19.60
2016,04,20,13,21,19.70
2016,04,20,13,22,19.60
2016,04,20,13,23,19.50
2016,04,20,13,24,19.30
2016,04,20,13,25,19.10
2016,04,20,13,26,19.00
2016,04,20,13,27,18.90
2016,04,20,13,28,18.80
2016,04,20,13,29,18.60
2016,04,20,13,30,18.50
2016,04,20,13,31,18.40
2016,04,20,13,32,18.30
2016,04,20,13,33,18.30
2016,04,20,13,34,18.30
2016,04,20,13,35,18.30
2016,04,20,13,36,18.30
2016,04,20,13,37,18.30
2016,04,20,13,38,18.30
2016,04,20,13,39,18.30
2016,04,20,13,40,18.30
2016,04,20,13,41,18.30
2016,04,20,13,42,18.30
2016,04,20,13,43,18.20
2016,04,20,13,44,18.20
2016,04,20,13,45,18.20
2016,04,20,13,46,18.30
2016,04,20,13,47,18.30
2016,04,20,13,48,18.40
2016,04,20,13,49,18.50
2016,04,20,13,50,18.60
2016,04,20,13,51,18.60
2016,04,20,13,52,18.70
2016,04,20,13,53,18.70
2016,04,20,13,54,18.70
2016,04,20,13,55,18.70
2016,04,20,13,56,18.70
2016,04,20,13,57,18.80
2016,04,20,13,58,18.80
2016,04,20,13,59,18.80
2016,04,20,14,00,18.90
2016,04,20,14,01,18.90
2016,04,20,14,02,18.90
2016,04,20,14,03,19.00
2016,04,20,14,04,19.10
2016,04,20,14,05,19.20
2016,04,20,14,06,19.30
2016,04,20,14,07,19.40
2016,04,20,14,08,19.50
2016,04,20,14,09,19.60
2016,04,20,14,10,19.60
2016,04,20,14,11,19.60
2016,04,20,14,12,19.60
2016,04,20,14,13,19.60
2016,04,20,14,14,19.70
2016,04,20,14,15,19.70
2016,04,20,14,16,19.70
2016,04,20,14,17,19.70
2016,04,20,14,18,19.60
2016,04,20,14,19,19.60
2016,04,20,14,20,19.60
2016,04,20,14,21,19.50
2016,04,20,14,22,19.50
2016,04,20,14,23,19.50
2016,04,20,14,24,19.50
2016,04,20,14,25,19.40
2016,04,20,14,26,19.40
2016,04,20,14,27,19.30
2016,04,20,14,28,19.30
2016,04,20,14,29,19.20
2016,04,20,14,30,19.20
2016,04,20,14,31,19.10
2016,04,20,14,32,19.00
2016,04,20,14,33,19.00
2016,04,20,14,34,18.90
2016,04,20,14,35,18.80
2016,04,20,14,36,18.60
2016,04,20,14,37,18.40
2016,04,20,14,38,18.10
2016,04,20,14,39,17.90
2016,04,20,14,40,17.70
2016,04,20,14,41,17.50
2016,04,20,14,42,17.40
2016,04,20,14,43,17.30
2016,04,20,14,44,17.10
2016,04,20,14,45,16.90
2016,04,20,14,46,16.80
2016,04,20,14,47,16.60
2016,04,20,14,48,16.60
2016,04,20,14,49,16.60
2016,04,20,14,50,16.60
2016,04,20,14,51,16.60
2016,04,20,14,52,16.60
2016,04,20,14,53,16.40
2016,04,20,14,54,16.30
2016,04,20,14,55,16.20
2016,04,20,14,56,16.20
2016,04,20,14,57,16.20
2016,04,20,14,58,16.10
2016,04,20,14,59,16.20
2016,04,20,15,00,16.20
2016,04,20,15,01,16.30
2016,04,20,15,02,16.40
2016,04,20,15,03,16.40
2016,04,20,15,04,16.60
2016,04,20,15,05,16.70
2016,04,20,15,06,16.80
2016,04,20,15,07,16.90
2016,04,20,15,08,16.90
2016,04,20,15,09,17.00
2016,04,20,15,10,17.00
2016,04,20,15,11,17.00
2016,04,20,15,12,17.10
2016,04,20,15,13,17.10
2016,04,20,15,14,17.20
2016,04,20,15,15,17.20
2016,04,20,15,16,17.30
2016,04,20,15,17,17.30
2016,04,20,15,18,17.30
2016,04,20,15,19,17.30
2016,04,20,15,20,17.40
2016,04,20,15,21,17.40
2016,04,20,15,22,17.40
2016,04,20,15,23,17.40
2016,04,20,15,24,17.40
2016,04,20,15,25,17.40
2016,04,20,15,26,17.40
2016,04,20,15,27,17.40
2016,04,20,15,28,17.40
2016,04,20,15,29,17.40
2016,04,20,15,30,17.40
2016,04,20,15,31,17.40
2016,04,20,15,32,17.40
2016,04,20,15,33,17.40
2016,04,20,15,34,17.30
2016,04,20,15,35,17.30
2016,04,20,15,36,17.30
2016,04,20,15,37,17.30
2016,04,20,15,38,17.30
2016,04,20,15,39,17.40
2016,04,20,15,40,17.40
2016,04,20,15,41,17.50
2016,04,20,15,42,17.60
2016,04,20,15,43,17.70
2016,04,20,15,44,17.80
2016,04,20,15,45,17.80
2016,04,20,15,46,17.70
2016,04,20,15,47,17.70
2016,04,20,15,48,17.50
2016,04,20,15,49,17.40
2016,04,20,15,50,17.30
2016,04,20,15,51,17.20
2016,04,20,15,52,17.10
2016,04,20,15,53,17.00
2016,04,20,15,54,16.90
2016,04,20,15,55,16.80
2016,04,20,15,56,16.70
2016,04,20,15,57,16.60
2016,04,20,15,58,16.50
2016,04,20,15,59,16.40
2016,04,20,16,00,16.30
2016,04,20,16,01,16.30
2016,04,20,16,02,16.30
2016,04,20,16,03,16.30
2016,04,20,16,04,16.40
2016,04,20,16,05,16.50
2016,04,20,16,06,16.60
2016,04,20,16,07,16.70
2016,04,20,16,08,16.70
2016,04,20,16,09,16.80
2016,04,20,16,10,16.80
2016,04,20,16,11,16.80
2016,04,20,16,12,16.80
2016,04,20,16,13,16.90
2016,04,20,16,14,17.00
2016,04,20,16,15,17.10
2016,04,20,16,16,17.20
2016,04,20,16,17,17.30
2016,04,20,16,18,17.40
2016,04,20,16,19,17.50
2016,04,20,16,20,17.50
2016,04,20,16,21,17.50
2016,04,20,16,22,17.50
2016,04,20,16,23,17.50
2016,04,20,16,24,17.50
2016,04,20,16,25,17.60
2016,04,20,16,26,17.60
2016,04,20,16,27,17.70
2016,04,20,16,28,17.80
2016,04,20,16,29,17.80
2016,04,20,16,30,17.80
2016,04,20,16,31,17.80
2016,04,20,16,32,17.80
2016,04,20,16,33,17.80
2016,04,20,16,34,17.80
2016,04,20,16,35,17.90
2016,04,20,16,36,17.90
2016,04,20,16,37,17.90
2016,04,20,16,38,17.80
2016,04,20,16,39,17.80
2016,04,20,16,40,17.80
2016,04,20,16,41,17.80
2016,04,20,16,42,17.90
2016,04,20,16,43,18.00
2016,04,20,16,44,18.10
2016,04,20,16,45,18.30
2016,04,20,16,46,18.40
2016,04,20,16,47,18.50
2016,04,20,16,48,18.60
2016,04,20,16,49,18.70
2016,04,20,16,50,18.70
2016,04,20,16,51,18.80
2016,04,20,16,52,18.90
2016,04,20,16,53,19.00
2016,04,20,16,54,19.10
2016,04,20,16,55,19.20
2016,04,20,16,56,19.30
2016,04,20,16,57,19.40
2016,04,20,16,58,19.50
2016,04,20,16,59,19.60
2016,04,20,17,00,19.60
2016,04,20,17,01,19.50
2016,04,20,17,02,19.40
2016,04,20,17,03,19.30
2016,04,20,17,04,19.30
2016,04,20,17,05,19.10
2016,04,20,17,06,18.90
2016,04,20,17,07,18.80
2016,04,20,17,08,18.80
2016,04,20,17,09,18.80
2016,04,20,17,10,18.80
2016,04,20,17,11,18.80
2016,04,20,17,12,18.80
2016,04,20,17,13,18.90
2016,04,20,17,14,19.00
2016,04,20,17,15,19.10
2016,04,20,17,16,19.20
2016,04,20,17,17,19.40
2016,04,20,17,18,19.50
2016,04,20,17,19,19.60
2016,04,20,17,20,19.70
2016,04,20,17,21,19.70
2016,04,20,17,22,19.70
2016,04,20,17,23,19.60
2016,04,20,17,24,19.50